Location: Saint Louis
(38.6272°N, 90.1978°W)
Time: 07:16:39
(UTC-05:00)

ISS - Pass Details

Date: 01 August 2013
Orbit: 402 x 403 km, 51.6° (Epoch: 25 June)

Event Time Altitude Azimuth Distance (km) Brightness Sun altitude
Exits shadow 02:39:58 14° 43° (NE) 1,243 -0.1 -29.4°
Drops below altitude 10° 02:41:04 10° 62° (ENE) 1,469 0.1 -29.3°
Enters shadow 04:04:50 -17° 307° (NW) 4,903 2.1 -19.8°
Maximum altitude 04:16:30 88° 41° (NE) 414 -3.4 -18.2°
